Home   Weather   Wetzlar   Past weeks

Flag for Germany Past Weather in Wetzlar, Hesse, Germany — Yesterday and Last 2 Weeks

Now
28 °F

Sunny.


Feels Like: 17 °F
Forecast: 13 / 29 °F
Wind: 14 mph from East

Location: Hessen

Current Time: Jan 19, 2017 at 2:09:40 pm

Latest Report: Jan 19, 2017 at 1:20 pm


Visibility: 10 mi

Pressure: 30.51 "Hg

Humidity: 55%

Dew Point: 14 °F

Location of WetzlarLocation

Past Weather in Wetzlar — Graph

°F

Wetzlar Temperature Yesterday

Maximum temperature yesterday: 21 °F (at 12:50 pm)
Minimum temperature yesterday: 16 °F (at 8:20 am)
Average temperature yesterday: 19 °F

High & Low Weather Summary for the Past Weeks

 TemperatureHumidityPressure
High37 °F (Jan 11, 4:50 pm)100% (Jan 4, 12:20 pm)30.63 "Hg (Jan 4, 12:20 pm)
Low12 °F (Jan 6, 6:20 am)63% (Jan 19, 10:50 am)29.39 "Hg (Jan 12, 8:50 pm)
Average26 °F94%30.15 "Hg
* Reported Jan 4 12:20 pm — Jan 19 12:50 pm, Wetzlar, Weather by CustomWeather, © 2017

Note: Actual official high and low records may vary slightly from our data, if they occured in-between our weather recording intervals... More about our weather records

Advertising

Wetzlar Weather History for the Previous 24 Hours

Scroll right to see more
 ConditionsComfort  
Time TempWeatherWind HumidityBarometerVisibility
12:50 pm
Thu, Jan 19
27 °FSunny.13 mph64%30.51 "Hg10 mi
12:20 pm27 °FSunny.12 mph64%30.54 "Hg10 mi
11:50 am27 °FSunny.12 mph64%30.54 "Hg10 mi
11:20 am25 °FSunny.10 mph63%30.54 "Hg10 mi
10:50 am25 °FSunny.12 mph63%30.54 "Hg10 mi
10:20 am23 °FSunny.10 mph68%30.54 "Hg10 mi
9:50 am21 °FSunny.12 mph68%30.54 "Hg10 mi
9:20 am21 °FSunny.10 mph68%30.54 "Hg10 mi
8:20 am18 °FSunny.10 mph73%30.51 "Hg10 mi
7:50 am18 °FClear.12 mph79%30.51 "Hg10 mi
8:50 pm
Wed, Jan 18
19 °FClear.13 mph93%30.54 "Hg10 mi
8:20 pm19 °FClear.13 mph93%30.54 "Hg10 mi
7:50 pm19 °FClear.12 mph93%30.54 "Hg10 mi
7:20 pm19 °FClear.13 mph93%30.54 "Hg10 mi
6:50 pm19 °FClear.12 mph93%30.54 "Hg10 mi
6:20 pm19 °FClear.9 mph93%30.54 "Hg10 mi
5:50 pm21 °FClear.9 mph93%30.54 "Hg10 mi
5:20 pm21 °FClear.8 mph93%30.54 "Hg10 mi
4:50 pm21 °FSunny.9 mph93%30.54 "Hg10 mi
4:20 pm21 °FSunny.9 mph93%30.54 "Hg10 mi
3:20 pm21 °FSunny.8 mph93%30.54 "Hg10 mi
2:50 pm21 °FSunny.8 mph100%30.54 "Hg10 mi
2:20 pm21 °FSunny.7 mph100%30.54 "Hg10 mi
Weather by CustomWeather, © 2017

See weather overviewHow to use our weather pages